THORAD DELTA 1 DEB, 8166

Orbit data source: Space-Track

THORAD DELTA 1 DEB, 8166 is space debris in SSO originally from a launch on Fri, 15 Nov 1974 UTC launched from the Air Force Western Test Range (AFWTR). Debris objects in space refer to the collection of defunct objects orbiting the Earth. Examples of debris include non-operational satellites, rocket bodies, and fragments generated from explosions, collisions, or faulty payload assembly.

Loading next visibility...
THORAD DELTA 1 DEB details
Identifier
8166, 1974-089AG
Orbit
SSO
Last TLE update5 days ago
Origin
Flag of USGSFC (US)
ManufacturerUnknown
MissionSpacecraft
Bus & MotorUnknown
MassUnknown
Launch date (UTC)
1974-11-15 (50 years ago)
Launch vehicleUnknown
Launch site
Air Force Western Test Range (AFWTR)
Object type
Payload
Rocket body
Debris
Shape & HBRUnknown
Radar Cross SectionSmall (<0.1 m²)

Expand to show TLE details & history

TLE from 5 days ago
0 THORAD DELTA 1 DEB
1  8166U 74089AG  24356.89727647  .00000132  00000-0  11432-2 0  9998
2  8166 101.9758 338.8265 0040301 310.0013  79.9115 12.51539152286513
Epoch: 2024-12-21T21:32Z
Definitive object data (Epoch: 2024-12-21T21:32:04.687Z)
Latitude29.68806°
Longitude-82.04633°
Altitude1,456.066 km
Speed7.139 km/s
True Right ascension22h 07m 39s
True Declination29° 33' 13"
Sunlit
Object was in daylight at TLE epoch
Visualization TLE readout
Latitude51.44528°
Longitude-85.90983°
Altitude1,477.659 km
Speed7.124 km/s
Apparent Right ascension22h 06m 56s
Apparent Declination11° 49' 52"
Sunlit
Object is in daylight
Visualization observer readout
Local Sidereal Time10:21:40
Azimuth4.59° NNE
Elevation-38.14°
Doppler factor1
Orbital elements
Apogee altitude1,487.193 km
Perigee altitude1,424.051 km
Semi-major axis7,833.759 km
Eccentricity0.0040301
Inclination101.9758°
RAAN338.8265°
Arg. of periapsis310.0013°
True anomaly80.36657°
Mean anomaly79.9115°
Eccentric anomaly80.139°
Mean motion3.13031 °/min
BSTAR0.0011432
Orbital period115 mins
Loading maneuver chart data...

THORAD DELTA 1 DEB Visibility forecast

Observer location: undefined°, undefined

Span
Click to sort rows by Start time (UTC) header in descending order
Start Az.
Max El. time (UTC)
Max El. Az.
Max El.
End time (UTC)
End Az.
15 mins2024-12-26 11:21:24.283Z29.431° NE2024-12-26 11:28:24.283Z92.791° ESE37.692°2024-12-26 11:36:24.283Z175.011° S
13 mins2024-12-26 13:15:24.283Z358.074° N2024-12-26 13:21:24.283Z300.94° NW31.781°2024-12-26 13:28:24.283Z238.736° WSW
7 mins2024-12-26 20:33:24.283Z69.998° E2024-12-26 20:36:24.283Z46.693° ENE15.079°2024-12-26 20:40:24.283Z16.896° NNE
14 mins2024-12-26 22:21:24.283Z144.581° SSE2024-12-26 22:27:24.283Z80.446° E42.612°2024-12-26 22:35:24.283Z348.134° N
11 mins2024-12-27 00:16:24.283Z221.718° SW2024-12-27 00:21:24.283Z267.618° W23.721°2024-12-27 00:27:24.283Z316.48° NNW
10 mins2024-12-27 10:26:24.283Z57.606° ENE2024-12-27 10:30:24.283Z91.144° ESE20.175°2024-12-27 10:36:24.283Z138.354° SSE
|